{"data":{"norad_id":69269,"intl_designator":"2026-118C","name":"KUIPER-00527","alt_names":[],"object_type":"PAYLOAD","status":"ACTIVE","operator":null,"country":"US","launch_date":"2026-05-29","launch_site_code":"AFETR","launch_vehicle":null,"mission":null,"orbit_class":"UNKNOWN","rcs_meters":null,"size_class":null,"mass_kg":null,"dimensions":null,"purposes":[],"wikipedia_slug":null,"has_3d_model":false,"image_url":null,"decayed_at":null,"tle_current":{"epoch":"2026-09-19T11:56:19.280832Z","epoch_age_seconds":116730,"freshness":"FRESH","line1":"1 69269U 26118C   26262.49744538  .00000977  00000+0  15712-3 0  9993","line2":"2 69269  51.8983 341.2529 0000473  91.2020 268.8997 14.79931141 18156","mean_motion":14.79931141,"eccentricity":4.73e-5,"inclination_deg":51.8983,"raan_deg":341.2529,"arg_perigee_deg":91.202,"mean_anomaly_deg":268.8997,"bstar":0.00015712000000000001,"rev_number":1815,"period_min":97.301824396166,"perigee_km":629.21003439054,"apogee_km":629.87296077641,"semimajor_km":7007.6784975835,"source":"CELESTRAK","updated_at":"2026-09-20T09:00:24.776051Z"}}}